STARLINK-3271, 50167

Orbit data source: Space-Track

STARLINK-3271, 50167 is a payload satellite owned by SpaceX/Seattle (US) in LEO that was launched on Sat, 18 Dec 2021 UTC via an FALCON 9 launch vehicle from the Air Force Western Test Range (AFWTR). Payload-class satellites include a variety of spacecraft equipped with specific instruments for various scientific and technological missions. These include communications satellites like Starlink; space stations such as the ISS; scientific satellites like the Hubble; Earth observation satellites from companies like Planet Labs, Umbra, and HawkEye 360; GPS; miniature CubeSats for education and research; and military/defense satellites.

Loading next visibility...
Identifier
50167, 2021-125M
Orbit
LEO
Country
Flag of USUS
Related business
Manufacturer
SpaceX/Seattle
Mission
Operational Commercial Communications
Bus & Motor
STARLINK, Unknown motor
Mass
290 kg wet, ~270 kg dry
Launch date (UTC)
2021-12-18 (5 years ago)
Launch vehicle
FALCON 9
Launch site
Air Force Western Test Range (AFWTR)
Object type
Payload
Rocket body
Debris
Shape & HBR
Box + 1 Pan, 10.1 m
Radar Cross Section
13.562 m², Large (>1 m²)

Expand to show TLE details & history
Last TLE update: 17 hours ago

TLE from 17 hours ago
0 STARLINK-3271
1 50167U 21125M   26169.70047649 -.00000629  00000-0 -21416-4 0  9998
2 50167  53.1607 165.5720 0001544  74.2377 285.8785 15.08829804251706
Epoch: 2026-06-18T16:48Z
TLE epoch observation values (Epoch: 2026-06-18T16:48:41.168Z)
Latitude
-0°
Longitude
6.46042°
Altitude
540.374 km
Speed
7.594 km/s
True Right ascension
11h 02m 17s
True Declination
0° 00' 00"
Sunlit
Object was in daylight at epoch
Visualization orbit readout
Latitude
Unknown
Longitude
Unknown
Altitude
Unknown
Speed
Unknown
Apparent Right ascension
Unknown
Apparent Declination
Unknown
Sunlit
N/A
Visualization observer readout
Local Sidereal Time
20:16:28
Azimuth
Unknown
Elevation
Unknown
Doppler factor
Unknown
Orbital elements
Apogee altitude
541.097 km
Perigee altitude
538.96 km
Semi-major axis
6,918.166 km
Eccentricity
0.00015
Inclination
53.1607°
RAAN
165.572°
Arg. of periapsis
74.2377°
True anomaly
285.86148°
Mean anomaly
285.8785°
Eccentric anomaly
285.86999°
Mean motion
3.77187 °/min
Orbital period
95.44 mins
BSTAR
-0.000021416
Loading maneuver chart data...
Computing Atmospheric mass density...

Documentation

Showing up to 5 results
|